Volver al catálogo

FENGYUN 1C DEB

ActivoPO
NORAD 33678·DEBRIS·🇨🇳 China

Lanzado May 10, 1999 desde Taiyuan Satellite Launch Center

Loading…

Próximos Pases (próximas 24 horas)

TLE

ActualizadoSource: Space-Track

Época: Sep 12, 2026, 16:48 UTC

1 33678U 99025DFP 26255.70025524  .00001213  00000-0  26200-3 0  9997
2 33678  99.0222 344.9240 0203441 137.9347 223.7667 14.48330390990609

Sigue FENGYUN 1C DEB en tiempo real con AllMySat

Download on the App Store